When you browse on this site, cookies collect data to enhance your experience and personalize the content and advertising you see.
Visit our Privacy Policy to learn more. By continuing to use the site, you agree to this use of cookies and data.
  • en France
  • Liste des pays
  • À 7 jours
  • Température de l'eau
  • Carte satellitaire
  • Carte météo
  • Widgets météo
  • user-avatar
    Se connecter

    Météo par heure à Airdrie

    Ce jour, 20 Juin, Jeudi

    Heure Température Précipitation Vent Pression Humidité
    00:00 +10°C° 0 mm 2 m/s 745 mmHg 96%
    01:00 +10°C° 0.7 mm 2 m/s 745 mmHg 95%
    02:00 +10°C° 0.7 mm 2 m/s 744 mmHg 94%
    03:00 +9°C° 0.7 mm 3 m/s 744 mmHg 93%
    04:00 +9°C° 0 mm 3 m/s 744 mmHg 92%
    05:00 +9°C° 0 mm 3 m/s 744 mmHg 92%
    06:00 +8°C° 0 mm 4 m/s 744 mmHg 92%
    07:00 +9°C° 0.2 mm 5 m/s 745 mmHg 87%
    08:00 +10°C° 0.2 mm 5 m/s 745 mmHg 82%
    09:00 +11°C° 0.2 mm 6 m/s 745 mmHg 78%
    10:00 +11°C° 0.4 mm 6 m/s 745 mmHg 76%
    11:00 +13°C° 0.4 mm 6 m/s 746 mmHg 74%
    12:00 +14°C° 0 mm 6 m/s 746 mmHg 73%
    13:00 +14°C° 0.3 mm 6 m/s 746 mmHg 71%
    14:00 +14°C° 0.3 mm 6 m/s 747 mmHg 69%
    15:00 +14°C° 0.3 mm 6 m/s 747 mmHg 67%
    16:00 +13°C° 0 mm 6 m/s 747 mmHg 66%
    17:00 +13°C° 0 mm 5 m/s 747 mmHg 64%
    18:00 +13°C° 0 mm 5 m/s 747 mmHg 63%
    19:00 +11°C° 0 mm 4 m/s 748 mmHg 69%
    20:00 +10°C° 0 mm 4 m/s 748 mmHg 75%
    21:00 +8°C° 0 mm 3 m/s 748 mmHg 81%
    22:00 +8°C° 0 mm 3 m/s 749 mmHg 84%
    23:00 +7°C° 0 mm 3 m/s 749 mmHg 88%

    Demain, 21 Juin, Vendredi

    Heure Température Précipitation Vent Pression Humidité
    00:00 +6°C° 0 mm 2 m/s 749 mmHg 91%
    01:00 +6°C° 0 mm 2 m/s 750 mmHg 92%
    02:00 +6°C° 0 mm 2 m/s 750 mmHg 92%
    03:00 +6°C° 0 mm 2 m/s 750 mmHg 93%
    04:00 +7°C° 0 mm 3 m/s 750 mmHg 90%
    05:00 +8°C° 0 mm 3 m/s 751 mmHg 88%
    06:00 +9°C° 0 mm 3 m/s 751 mmHg 85%
    07:00 +10°C° 0.1 mm 4 m/s 751 mmHg 79%
    08:00 +11°C° 0.1 mm 4 m/s 752 mmHg 74%
    09:00 +12°C° 0.1 mm 5 m/s 752 mmHg 68%
    10:00 +13°C° 0 mm 5 m/s 753 mmHg 64%
    11:00 +14°C° 0 mm 5 m/s 753 mmHg 60%
    12:00 +15°C° 0 mm 5 m/s 754 mmHg 57%
    13:00 +15°C° 0.1 mm 5 m/s 754 mmHg 56%
    14:00 +15°C° 0.1 mm 5 m/s 754 mmHg 56%
    15:00 +15°C° 0.1 mm 5 m/s 755 mmHg 56%
    16:00 +15°C° 0 mm 4 m/s 755 mmHg 58%
    17:00 +14°C° 0 mm 4 m/s 755 mmHg 60%
    18:00 +14°C° 0 mm 4 m/s 755 mmHg 61%
    19:00 +12°C° 0 mm 3 m/s 756 mmHg 68%
    20:00 +11°C° 0 mm 3 m/s 756 mmHg 74%
    21:00 +9°C° 0 mm 2 m/s 756 mmHg 80%
    22:00 +8°C° 0 mm 2 m/s 756 mmHg 82%
    23:00 +7°C° 0 mm 2 m/s 756 mmHg 83%

    Après-demain, 22 Juin, Samedi

    Heure Température Précipitation Vent Pression Humidité
    00:00 +8°C° 0 mm 1 m/s 756 mmHg 85%
    01:00 +8°C° 0 mm 1 m/s 756 mmHg 86%
    02:00 +7°C° 0 mm 1 m/s 756 mmHg 87%
    03:00 +7°C° 0 mm 1 m/s 756 mmHg 87%
    04:00 +8°C° 0 mm 1 m/s 756 mmHg 85%
    05:00 +9°C° 0 mm 1 m/s 757 mmHg 82%
    06:00 +11°C° 0 mm 1 m/s 757 mmHg 80%
    07:00 +12°C° 0 mm 1 m/s 757 mmHg 75%
    08:00 +13°C° 0 mm 2 m/s 757 mmHg 70%
    09:00 +15°C° 0 mm 2 m/s 757 mmHg 65%
    10:00 +16°C° 0 mm 2 m/s 757 mmHg 63%
    11:00 +16°C° 0 mm 2 m/s 757 mmHg 62%
    12:00 +17°C° 0 mm 2 m/s 757 mmHg 60%
    13:00 +18°C° 0.1 mm 2 m/s 757 mmHg 61%
    14:00 +18°C° 0.1 mm 2 m/s 757 mmHg 63%
    15:00 +18°C° 0.1 mm 2 m/s 757 mmHg 64%
    16:00 +18°C° 0.1 mm 2 m/s 756 mmHg 66%
    17:00 +19°C° 0.1 mm 1 m/s 756 mmHg 68%
    18:00 +18°C° 0.1 mm 1 m/s 756 mmHg 70%
    19:00 +16°C° 0 mm 1 m/s 756 mmHg 74%
    20:00 +15°C° 0 mm 1 m/s 756 mmHg 77%
    21:00 +12°C° 0 mm 0 m/s 756 mmHg 81%
    22:00 +13°C° 0 mm 1 m/s 756 mmHg 82%
    23:00 +12°C° 0 mm 1 m/s 756 mmHg 83%

    23 Juin, Dimanche

    Heure Température Précipitation Vent Pression Humidité
    00:00 +12°C° 0 mm 1 m/s 756 mmHg 85%
    01:00 +12°C° 0 mm 1 m/s 756 mmHg 86%
    02:00 +12°C° 0 mm 1 m/s 756 mmHg 88%
    03:00 +12°C° 0 mm 1 m/s 756 mmHg 89%
    04:00 +12°C° 0 mm 1 m/s 756 mmHg 89%
    05:00 +13°C° 0 mm 1 m/s 756 mmHg 88%
    06:00 +13°C° 0 mm 1 m/s 756 mmHg 88%
    07:00 +14°C° 0.1 mm 1 m/s 756 mmHg 85%
    08:00 +15°C° 0.1 mm 2 m/s 756 mmHg 83%
    09:00 +17°C° 0.1 mm 2 m/s 756 mmHg 80%
    10:00 +17°C° 0.4 mm 2 m/s 756 mmHg 80%
    11:00 +18°C° 0.4 mm 2 m/s 756 mmHg 79%
    12:00 +18°C° 0.4 mm 2 m/s 757 mmHg 78%
    13:00 +19°C° 0.2 mm 2 m/s 756 mmHg 75%
    14:00 +19°C° 0.2 mm 2 m/s 756 mmHg 71%
    15:00 +20°C° 0.2 mm 2 m/s 756 mmHg 67%
    16:00 +20°C° 0.1 mm 3 m/s 756 mmHg 70%
    17:00 +20°C° 0.1 mm 3 m/s 756 mmHg 72%
    18:00 +19°C° 0.1 mm 4 m/s 756 mmHg 74%
    19:00 +18°C° 0 mm 3 m/s 757 mmHg 79%
    20:00 +17°C° 0 mm 3 m/s 757 mmHg 85%
    21:00 +14°C° 0 mm 3 m/s 757 mmHg 90%
    22:00 +14°C° 0.2 mm 4 m/s 757 mmHg 90%
    23:00 +13°C° 0.2 mm 4 m/s 757 mmHg 91%

    24 Juin, Lundi

    Heure Température Précipitation Vent Pression Humidité
    00:00 +13°C° 0.2 mm 5 m/s 757 mmHg 92%
    01:00 +13°C° 2.4 mm 5 m/s 756 mmHg 93%
    02:00 +13°C° 2.4 mm 5 m/s 756 mmHg 95%
    03:00 +13°C° 2.4 mm 6 m/s 756 mmHg 96%
    04:00 +13°C° 3.1 mm 6 m/s 756 mmHg 96%
    05:00 +13°C° 3.1 mm 5 m/s 756 mmHg 96%
    06:00 +13°C° 3.1 mm 5 m/s 756 mmHg 96%
    07:00 +13°C° 0.7 mm 5 m/s 756 mmHg 95%
    08:00 +14°C° 0.7 mm 5 m/s 756 mmHg 94%
    09:00 +14°C° 0.7 mm 5 m/s 756 mmHg 93%
    10:00 +15°C° 0.8 mm 5 m/s 757 mmHg 93%
    11:00 +15°C° 0.8 mm 5 m/s 757 mmHg 92%
    12:00 +16°C° 0.8 mm 5 m/s 757 mmHg 92%
    13:00 +16°C° 0.4 mm 5 m/s 757 mmHg 92%
    14:00 +16°C° 0.4 mm 5 m/s 757 mmHg 93%
    15:00 +16°C° 0.4 mm 5 m/s 757 mmHg 94%
    16:00 +15°C° 0.4 mm 4 m/s 757 mmHg 94%
    17:00 +15°C° 0.4 mm 4 m/s 757 mmHg 95%
    18:00 +15°C° 0.4 mm 4 m/s 757 mmHg 95%
    19:00 +16°C° 0.1 mm 3 m/s 758 mmHg 96%
    20:00 +16°C° 0.1 mm 3 m/s 758 mmHg 96%
    21:00 +14°C° 0.1 mm 3 m/s 759 mmHg 97%
    22:00 +15°C° 0.1 mm 2 m/s 759 mmHg 97%
    23:00 +15°C° 0.1 mm 2 m/s 759 mmHg 97%

    25 Juin, Mardi

    Heure Température Précipitation Vent Pression Humidité
    00:00 +15°C° 0.1 mm 2 m/s 759 mmHg 97%
    01:00 +15°C° 0.2 mm 2 m/s 759 mmHg 98%
    02:00 +15°C° 0.2 mm 2 m/s 760 mmHg 98%
    03:00 +15°C° 0.2 mm 2 m/s 760 mmHg 98%
    04:00 +15°C° 0.4 mm 2 m/s 760 mmHg 98%
    05:00 +15°C° 0.4 mm 2 m/s 760 mmHg 98%
    06:00 +15°C° 0.4 mm 2 m/s 760 mmHg 98%
    07:00 +14°C° 0 mm 3 m/s 760 mmHg 97%
    08:00 +14°C° 0 mm 3 m/s 761 mmHg 96%
    09:00 +16°C° 0 mm 3 m/s 761 mmHg 95%
    10:00 +16°C° 0 mm 3 m/s 761 mmHg 94%
    11:00 +16°C° 0 mm 3 m/s 761 mmHg 93%
    12:00 +17°C° 0 mm 4 m/s 761 mmHg 92%
    13:00 +17°C° 0 mm 4 m/s 761 mmHg 91%
    14:00 +17°C° 0 mm 4 m/s 761 mmHg 91%
    15:00 +17°C° 0 mm 4 m/s 762 mmHg 91%
    16:00 +17°C° 0.1 mm 4 m/s 762 mmHg 92%
    17:00 +17°C° 0.1 mm 4 m/s 762 mmHg 93%
    18:00 +15°C° 0.1 mm 4 m/s 762 mmHg 93%
    19:00 +15°C° 0 mm 4 m/s 762 mmHg 93%
    20:00 +15°C° 0 mm 4 m/s 762 mmHg 93%
    21:00 +14°C° 0 mm 4 m/s 763 mmHg 93%
    22:00 +14°C° 0 mm 4 m/s 763 mmHg 93%
    23:00 +14°C° 0 mm 4 m/s 763 mmHg 93%
    Voir plus